Flag for Germany Weather past 2 weeks in Varel, Lower Saxony, Germany

Now
54 °F

Passing clouds.


Feels Like: 53 °F
Forecast: 58 / 70 °F
Wind: 5 mph from Southeast

Location: Wittmundhaven

Current Time: Aug 28, 2014 at 9:07:28 AM

Latest Report: Aug 28, 2014 at 8:20 AM


Visibility: 5 mi

Pressure: 30.01 "Hg

Humidity: 94%

Dew point: 52 °F

Location of VarelLocation

Historic Weather in Varel — Graph

°F

Varel temperature yesterday

Maximum temperature yesterday: 66 °F (at 12:20 PM)
Minimum temperature yesterday: 46 °F (at 3:20 AM)
Average temperature yesterday: 58 °F

Past Weeks' High & Low Weather Summary

 TemperatureHumidityPressure
High68 °F (Aug 13, 1:20 PM)100% (Aug 14, 11:20 PM)30.04 "Hg (Aug 14, 11:20 PM)
Low46 °F (Aug 21, 5:20 AM)45% (Aug 25, 4:20 PM)29.47 "Hg (Aug 18, 6:20 AM)
Average56 °F81%29.82 "Hg
* Reported Aug 13 7:20 AM — Aug 28 7:20 AM, Varel, Weather by CustomWeather, © 2014

Note: Actual official high and low records may vary slightly from our data, if they occured in-between our weather recording intervals... More about our weather records

Advertising

Varel weather history for previous 24 hours

 ConditionsComfort  
Time TempWeatherWind HumidityBarometerVisibility
7:20 AM
Aug 28
50 °FFog.3 mph100%30.01 "Hg2 mi
6:54 AM50 °FFog.3 mph100%30.01 "Hg1 mi
6:20 AM50 °FFog.3 mph94%30.01 "Hg0 mi
5:20 AM50 °FFog.5 mph100%30.01 "Hg0 mi
4:20 AM52 °FFog.3 mph94%30.04 "Hg0 mi
3:20 AM52 °FFog.3 mph100%30.04 "Hg1 mi
2:20 AM52 °FFog.2 mph94%30.04 "Hg0 mi
1:20 AM52 °FFog.2 mph94%30.04 "Hg1 mi
12:20 AM52 °FFog.1 mph94%30.04 "HgN/A
11:20 PM
Aug 27
52 °FFog.2 mph94%30.04 "HgN/A
10:20 PM55 °FFog.2 mph88%30.04 "HgN/A
9:20 PM59 °FPassing clouds.5 mph88%30.04 "HgN/A
8:20 PM61 °FPassing clouds.6 mph83%30.04 "HgN/A
7:20 PM64 °FPassing clouds.5 mph73%30.04 "HgN/A
6:20 PM64 °FPassing clouds.8 mph68%30.04 "HgN/A
5:20 PM66 °FPassing clouds.8 mph64%30.04 "HgN/A
4:20 PM66 °FScattered clouds.9 mph64%30.04 "HgN/A
3:20 PM66 °FScattered clouds.9 mph68%30.04 "HgN/A
2:20 PM66 °FScattered clouds.8 mph68%30.04 "HgN/A
1:20 PM66 °FScattered clouds.7 mph68%30.01 "HgN/A
12:20 PM66 °FScattered clouds.5 mph64%30.01 "HgN/A
11:20 AM64 °FScattered clouds.3 mph68%30.01 "HgN/A
10:20 AM64 °FScattered clouds.5 mph73%30.01 "HgN/A
9:20 AM61 °FPassing clouds.3 mph88%29.98 "HgN/A
Weather by CustomWeather, © 2014

See weather overviewHow to use our weather pages